Location: Beneden-Haastrecht
(52.0012°N, 4.7557°E)
Time: 03:19:44
(UTC+00:00)

NOAA 12 - Pass Details

Date: 24 October 2020
Orbit: 796 x 815 km, 98.5° (Epoch: 24 November)

Event Time Altitude Azimuth Distance (km) Brightness Sun altitude
Rises 17:07:12 0° 168° (SSE) 3,309 7.3 -6.8°
Reaches altitude 10° 17:09:32 10° 171° (S) 2,385 6.6 -7.1°
Maximum altitude 17:14:49 74° 256° (WSW) 847 4.4 -7.9°
Drops below altitude 10° 17:20:10 10° 342° (NNW) 2,414 6.7 -8.7°
Sets 17:22:32 0° 344° (NNW) 3,352 7.4 -9.1°
